| time (UTC) | temp F | wind direction | speed MPH | gust MPH | rain 1hr in | rain 24hr in | rain mn in | humidity % | barometer mb |
| 20260906203013 | 56 | 224 | 0.0 | 0.0 | 0.00 | 0.00 | 0.00 | 50 | 1025.5 |
| 20260906202509 | 56 | 224 | 0.0 | 1.0 | 0.00 | 0.00 | 0.00 | 49 | 1025.5 |
| 20260906202003 | 56 | 225 | 0.0 | 6.0 | 0.00 | 0.00 | 0.00 | 48 | 1025.4 |
| 20260906201502 | 56 | 220 | 0.0 | 6.0 | 0.00 | 0.00 | 0.00 | 47 | 1025.4 |
| 20260906200954 | 56 | 221 | 0.0 | 1.0 | 0.00 | 0.00 | 0.00 | 47 | 1025.4 |
| 20260906200453 | 56 | 208 | 0.0 | 1.0 | 0.00 | 0.00 | 0.00 | 46 | 1025.4 |
| 20260906195948 | 56 | 216 | 0.0 | 1.0 | 0.00 | 0.00 | 0.00 | 46 | 1025.3 |
| 20260906195445 | 56 | 211 | 2.0 | 7.0 | 0.00 | 0.00 | 0.00 | 45 | 1025.3 |
| 20260906194942 | 56 | 189 | 5.0 | 10.0 | 0.00 | 0.00 | 0.00 | 45 | 1025.2 |
| 20260906194436 | 56 | 209 | 5.0 | 10.0 | 0.00 | 0.00 | 0.00 | 45 | 1025.1 |
| 20260906193934 | 57 | 220 | 3.0 | 9.0 | 0.00 | 0.00 | 0.00 | 44 | 1025.0 |
| 20260906193431 | 57 | 219 | 2.0 | 9.0 | 0.00 | 0.00 | 0.00 | 45 | 1025.0 |
| 20260906192930 | 57 | 216 | 4.0 | 12.0 | 0.00 | 0.00 | 0.00 | 45 | 1024.9 |
| 20260906192429 | 57 | 218 | 5.0 | 12.0 | 0.00 | 0.00 | 0.00 | 44 | 1024.9 |
| 20260906192158 | 57 | 222 | 3.0 | 10.0 | 0.00 | 0.00 | 0.00 | 44 | 1024.9 |
| 20260906192039 | 57 | 198 | 2.0 | 9.0 | 0.00 | 0.00 | 0.00 | 45 | 1024.9 |
| 20260906190928 | 56 | 209 | 2.0 | 9.0 | 0.00 | 0.00 | 0.00 | 45 | 1024.9 |
| 20260906190415 | 56 | 204 | 3.0 | 9.0 | 0.00 | 0.00 | 0.00 | 45 | 1024.9 |
| 20260906185904 | 56 | 190 | 6.0 | 10.0 | 0.00 | 0.00 | 0.00 | 45 | 1024.9 |
| 20260906185354 | 56 | 215 | 5.0 | 10.0 | 0.00 | 0.00 | 0.00 | 45 | 1024.9 |
| 20260906184846 | 56 | 208 | 6.0 | 12.0 | 0.00 | 0.00 | 0.00 | 46 | 1024.8 |
| 20260906184337 | 56 | 231 | 7.0 | 12.0 | 0.00 | 0.00 | 0.00 | 46 | 1024.8 |
| 20260906183828 | 57 | 240 | 7.0 | 11.0 | 0.00 | 0.00 | 0.00 | 46 | 1024.7 |
| 20260906183313 | 57 | 239 | 6.0 | 13.0 | 0.00 | 0.00 | 0.00 | 45 | 1024.7 |
| 20260906182759 | 58 | 231 | 6.0 | 14.0 | 0.00 | 0.00 | 0.00 | 45 | 1024.6 |
| 20260906182248 | 58 | 245 | 4.0 | 14.0 | 0.00 | 0.00 | 0.00 | 47 | 1024.7 |
| 20260906181740 | 58 | 258 | 1.0 | 8.0 | 0.00 | 0.00 | 0.00 | 47 | 1024.6 |
| 20260906181229 | 58 | 238 | 4.0 | 12.0 | 0.00 | 0.00 | 0.00 | 47 | 1024.7 |
| 20260906180713 | 58 | 299 | 3.0 | 12.0 | 0.00 | 0.00 | 0.00 | 47 | 1024.7 |
| 20260906180156 | 58 | 298 | 4.0 | 11.0 | 0.00 | 0.00 | 0.00 | 48 | 1024.7 |
| 20260906175648 | 57 | 247 | 6.0 | 11.0 | 0.00 | 0.00 | 0.00 | 48 | 1024.9 |
| 20260906175136 | 57 | 220 | 6.0 | 11.0 | 0.00 | 0.00 | 0.00 | 50 | 1024.9 |
| 20260906174620 | 57 | 210 | 6.0 | 10.0 | 0.00 | 0.00 | 0.00 | 50 | 1024.9 |
| 20260906174106 | 57 | 230 | 6.0 | 11.0 | 0.00 | 0.00 | 0.00 | 50 | 1024.9 |
| 20260906173827 | 57 | 256 | 4.0 | 14.0 | 0.00 | 0.00 | 0.00 | 48 | 1025.0 |
| 20260906173327 | 58 | 197 | 2.0 | 14.0 | 0.00 | 0.00 | 0.00 | 46 | 1025.0 |
| 20260906172557 | 58 | 215 | 3.0 | 11.0 | 0.00 | 0.00 | 0.00 | 44 | 1025.0 |
| 20260906172056 | 58 | 246 | 3.0 | 11.0 | 0.00 | 0.00 | 0.00 | 49 | 1025.0 |
| 20260906171556 | 57 | 242 | 3.0 | 10.0 | 0.00 | 0.00 | 0.00 | 51 | 1025.2 |
| 20260906171056 | 57 | 214 | 5.0 | 13.0 | 0.00 | 0.00 | 0.00 | 51 | 1025.2 |
| 20260906170548 | 57 | 235 | 3.0 | 13.0 | 0.00 | 0.00 | 0.00 | 50 | 1025.2 |
| 20260906170037 | 57 | 234 | 2.0 | 7.0 | 0.00 | 0.00 | 0.00 | 50 | 1025.2 |
| 20260906165527 | 57 | 236 | 2.0 | 7.0 | 0.00 | 0.00 | 0.00 | 50 | 1025.4 |
| 20260906165018 | 57 | 213 | 0.0 | 7.0 | 0.00 | 0.00 | 0.00 | 50 | 1025.4 |
| 20260906164506 | 57 | 89 | 0.0 | 2.0 | 0.00 | 0.00 | 0.00 | 50 | 1025.4 |
| 20260906164228 | 56 | 143 | 1.0 | 10.0 | 0.00 | 0.00 | 0.00 | 51 | 1025.6 |
| 20260906163716 | 57 | 217 | 2.0 | 10.0 | 0.00 | 0.00 | 0.00 | 51 | 1025.6 |
| 20260906162935 | 57 | 180 | 0.0 | 7.0 | 0.00 | 0.00 | 0.00 | 49 | 1025.6 |
| 20260906162648 | 57 | 221 | 1.0 | 8.0 | 0.00 | 0.00 | 0.00 | 50 | 1025.7 |
| 20260906161908 | 57 | 216 | 1.0 | 8.0 | 0.00 | 0.00 | 0.00 | 49 | 1025.8 |
| 20260906161355 | 57 | 194 | 1.0 | 8.0 | 0.00 | 0.00 | 0.00 | 48 | 1025.8 |
| 20260906160842 | 56 | 219 | 1.0 | 8.0 | 0.00 | 0.00 | 0.00 | 49 | 1025.9 |
| 20260906160330 | 56 | 105 | 2.0 | 7.0 | 0.00 | 0.00 | 0.00 | 48 | 1026.1 |
| 20260906155819 | 56 | 212 | 2.0 | 9.0 | 0.00 | 0.00 | 0.00 | 50 | 1026.2 |
| 20260906155309 | 55 | 219 | 2.0 | 10.0 | 0.00 | 0.00 | 0.00 | 52 | 1026.2 |
| 20260906154808 | 55 | 191 | 5.0 | 11.0 | 0.00 | 0.00 | 0.00 | 53 | 1026.2 |
| 20260906154308 | 55 | 231 | 5.0 | 13.0 | 0.00 | 0.00 | 0.00 | 54 | 1026.4 |
| 20260906153808 | 55 | 251 | 2.0 | 13.0 | 0.00 | 0.00 | 0.00 | 55 | 1026.4 |
| 20260906153305 | 54 | 151 | 4.0 | 9.0 | 0.00 | 0.00 | 0.00 | 55 | 1026.4 |
| 20260906153037 | 54 | 210 | 4.0 | 10.0 | 0.00 | 0.00 | 0.00 | 56 | 1026.6 |
| 20260906152536 | 55 | 231 | 3.0 | 10.0 | 0.00 | 0.00 | 0.00 | 58 | 1026.6 |
| 20260906151805 | 55 | 210 | 2.0 | 10.0 | 0.00 | 0.00 | 0.00 | 57 | 1026.6 |
| 20260906151304 | 54 | 214 | 2.0 | 8.0 | 0.00 | 0.00 | 0.00 | 58 | 1026.7 |
| 20260906150803 | 54 | 206 | 5.0 | 12.0 | 0.00 | 0.00 | 0.00 | 61 | 1026.7 |
| 20260906150304 | 54 | 256 | 5.0 | 12.0 | 0.00 | 0.00 | 0.00 | 62 | 1026.6 |
| 20260906150034 | 54 | 233 | 3.0 | 10.0 | 0.00 | 0.00 | 0.00 | 61 | 1026.8 |
| 20260906145532 | 54 | 261 | 5.0 | 9.0 | 0.00 | 0.00 | 0.00 | 60 | 1026.9 |
| 20260906144801 | 54 | 226 | 4.0 | 11.0 | 0.00 | 0.00 | 0.00 | 60 | 1026.9 |
| 20260906144301 | 54 | 195 | 1.0 | 11.0 | 0.00 | 0.00 | 0.00 | 63 | 1026.8 |
| 20260906143801 | 53 | 193 | 1.0 | 8.0 | 0.00 | 0.00 | 0.00 | 64 | 1026.9 |
| 20260906143533 | 53 | 226 | 2.0 | 9.0 | 0.00 | 0.00 | 0.00 | 63 | 1026.9 |
| 20260906143031 | 54 | 237 | 1.0 | 9.0 | 0.00 | 0.00 | 0.00 | 62 | 1026.9 |
| 20260906142300 | 53 | 161 | 1.0 | 7.0 | 0.00 | 0.00 | 0.00 | 62 | 1026.8 |
| 20260906141759 | 53 | 225 | 1.0 | 7.0 | 0.00 | 0.00 | 0.00 | 62 | 1026.9 |
| 20260906141300 | 53 | 254 | 1.0 | 7.0 | 0.00 | 0.00 | 0.00 | 63 | 1026.9 |
| 20260906140800 | 54 | 202 | 1.0 | 7.0 | 0.00 | 0.00 | 0.00 | 63 | 1026.9 |
| 20260906140259 | 54 | 251 | 0.0 | 1.0 | 0.00 | 0.00 | 0.00 | 61 | 1026.9 |
| 20260906135800 | 54 | 164 | 1.0 | 5.0 | 0.00 | 0.00 | 0.00 | 65 | 1026.9 |
| 20260906135300 | 52 | 260 | 2.0 | 8.0 | 0.00 | 0.00 | 0.00 | 67 | 1027.0 |
| 20260906135030 | 52 | 214 | 3.0 | 8.0 | 0.00 | 0.00 | 0.00 | 67 | 1026.9 |
| 20260906134259 | 52 | 222 | 2.0 | 8.0 | 0.00 | 0.00 | 0.00 | 67 | 1026.9 |
| 20260906133800 | 52 | 228 | 1.0 | 8.0 | 0.00 | 0.00 | 0.00 | 68 | 1026.9 |
| 20260906133259 | 52 | 247 | 1.0 | 5.0 | 0.00 | 0.00 | 0.00 | 69 | 1027.0 |
| 20260906132759 | 51 | 197 | 3.0 | 11.0 | 0.00 | 0.00 | 0.00 | 69 | 1027.0 |
| 20260906132259 | 51 | 213 | 3.0 | 11.0 | 0.00 | 0.00 | 0.00 | 69 | 1026.9 |
| 20260906131800 | 51 | 233 | 1.0 | 6.0 | 0.00 | 0.00 | 0.00 | 69 | 1026.9 |
| 20260906131300 | 51 | 224 | 2.0 | 7.0 | 0.00 | 0.00 | 0.00 | 68 | 1027.0 |
| 20260906130800 | 51 | 241 | 2.0 | 7.0 | 0.00 | 0.00 | 0.00 | 69 | 1026.9 |
| 20260906130300 | 51 | 271 | 0.0 | 7.0 | 0.00 | 0.00 | 0.00 | 70 | 1026.8 |
| 20260906125759 | 51 | 254 | 0.0 | 7.0 | 0.00 | 0.00 | 0.00 | 71 | 1027.0 |
| 20260906125258 | 51 | 208 | 1.0 | 5.0 | 0.00 | 0.00 | 0.00 | 71 | 1026.8 |
| 20260906124757 | 51 | 244 | 2.0 | 9.0 | 0.00 | 0.00 | 0.00 | 72 | 1026.9 |
| 20260906124254 | 51 | 220 | 2.0 | 9.0 | 0.00 | 0.00 | 0.00 | 72 | 1026.9 |
| 20260906123752 | 50 | 249 | 2.0 | 8.0 | 0.00 | 0.00 | 0.00 | 73 | 1026.9 |
| 20260906123522 | 50 | 168 | 2.0 | 7.0 | 0.00 | 0.00 | 0.00 | 73 | 1026.9 |
| 20260906122750 | 50 | 220 | 2.0 | 10.0 | 0.00 | 0.00 | 0.00 | 73 | 1026.9 |
| 20260906122251 | 50 | 222 | 2.0 | 10.0 | 0.00 | 0.00 | 0.00 | 74 | 1026.9 |
| 20260906121748 | 50 | 239 | 4.0 | 8.0 | 0.00 | 0.00 | 0.00 | 74 | 1026.9 |
| 20260906121244 | 49 | 206 | 4.0 | 8.0 | 0.00 | 0.00 | 0.00 | 74 | 1026.9 |
| 20260906120740 | 49 | 243 | 4.0 | 8.0 | 0.00 | 0.00 | 0.00 | 74 | 1026.9 |
| 20260906120238 | 49 | 212 | 5.0 | 9.0 | 0.00 | 0.00 | 0.00 | 75 | 1026.8 |
| 20260906120005 | 49 | 203 | 3.0 | 9.0 | 0.00 | 0.00 | 0.00 | 76 | 1026.7 |
| 20260906115232 | 49 | 236 | 3.0 | 11.0 | 0.00 | 0.00 | 0.00 | 76 | 1026.6 |
| 20260906115004 | 49 | 208 | 2.0 | 11.0 | 0.00 | 0.00 | 0.00 | 76 | 1026.5 |
| 20260906114228 | 49 | 241 | 1.0 | 5.0 | 0.00 | 0.00 | 0.00 | 77 | 1026.5 |
| 20260906113722 | 48 | 229 | 1.0 | 8.0 | 0.00 | 0.00 | 0.00 | 77 | 1026.5 |
| 20260906113217 | 48 | 250 | 2.0 | 8.0 | 0.00 | 0.00 | 0.00 | 77 | 1026.5 |
| 20260906113211 | 48 | 226 | 1.0 | 7.0 | 0.00 | 0.00 | 0.00 | 77 | 1026.6 |
| 20260906112208 | 48 | 227 | 0.0 | 7.0 | 0.00 | 0.00 | 0.00 | 77 | 1026.6 |
| 20260906111703 | 47 | 256 | 0.0 | 4.0 | 0.00 | 0.00 | 0.00 | 77 | 1026.7 |
| 20260906111424 | 47 | 260 | 1.0 | 7.0 | 0.00 | 0.00 | 0.00 | 77 | 1026.8 |
| 20260906110645 | 47 | 240 | 0.0 | 7.0 | 0.00 | 0.00 | 0.00 | 77 | 1026.8 |
| 20260906110130 | 47 | 241 | 0.0 | 1.0 | 0.00 | 0.00 | 0.00 | 77 | 1026.7 |
| 20260906105630 | 47 | 227 | 0.0 | 1.0 | 0.00 | 0.00 | 0.00 | 78 | 1026.8 |
| 20260906105129 | 47 | 227 | 0.0 | 0.0 | 0.00 | 0.00 | 0.00 | 79 | 1026.8 |
| 20260906104625 | 47 | 227 | 0.0 | 0.0 | 0.00 | 0.00 | 0.00 | 81 | 1026.8 |
| 20260906104116 | 47 | 227 | 0.0 | 0.0 | 0.00 | 0.00 | 0.00 | 82 | 1026.8 |
| 20260906103605 | 47 | 227 | 0.0 | 0.0 | 0.00 | 0.00 | 0.00 | 82 | 1026.7 |
| 20260906103054 | 46 | 228 | 0.0 | 0.0 | 0.00 | 0.00 | 0.00 | 82 | 1026.7 |
| 20260906102536 | 46 | 227 | 0.0 | 0.0 | 0.00 | 0.00 | 0.00 | 83 | 1026.8 |
| 20260906102026 | 46 | 227 | 0.0 | 0.0 | 0.00 | 0.00 | 0.00 | 83 | 1026.7 |
| 20260906101517 | 46 | 227 | 0.0 | 0.0 | 0.00 | 0.00 | 0.00 | 82 | 1026.5 |
| 20260906101006 | 45 | 227 | 0.0 | 0.0 | 0.00 | 0.00 | 0.00 | 82 | 1026.4 |
| 20260906100725 | 45 | 227 | 0.0 | 0.0 | 0.00 | 0.00 | 0.00 | 82 | 1026.3 |
| 20260906095944 | 45 | 227 | 0.0 | 0.0 | 0.00 | 0.00 | 0.00 | 81 | 1026.3 |
| 20260906095658 | 45 | 227 | 0.0 | 0.0 | 0.00 | 0.00 | 0.00 | 80 | 1026.1 |
| 20260906095154 | 45 | 227 | 0.0 | 0.0 | 0.00 | 0.00 | 0.00 | 80 | 1026.1 |
| 20260906094414 | 46 | 227 | 0.0 | 0.0 | 0.00 | 0.00 | 0.00 | 80 | 1026.0 |
| 20260906093905 | 46 | 227 | 0.0 | 0.0 | 0.00 | 0.00 | 0.00 | 80 | 1026.0 |
| 20260906093351 | 46 | 227 | 0.0 | 0.0 | 0.00 | 0.00 | 0.00 | 80 | 1025.8 |
| 20260906092841 | 46 | 227 | 0.0 | 0.0 | 0.00 | 0.00 | 0.00 | 79 | 1025.7 |
| 20260906092332 | 47 | 227 | 0.0 | 0.0 | 0.00 | 0.00 | 0.00 | 78 | 1025.6 |
| 20260906091822 | 47 | 227 | 0.0 | 0.0 | 0.00 | 0.00 | 0.00 | 78 | 1025.5 |
| 20260906091306 | 47 | 227 | 0.0 | 0.0 | 0.00 | 0.00 | 0.00 | 77 | 1025.5 |
| 20260906090752 | 47 | 227 | 0.0 | 0.0 | 0.00 | 0.00 | 0.00 | 77 | 1025.3 |
| 20260906090242 | 47 | 227 | 0.0 | 0.0 | 0.00 | 0.00 | 0.00 | 77 | 1025.2 |
| 20260906085729 | 47 | 227 | 0.0 | 0.0 | 0.00 | 0.00 | 0.00 | 77 | 1025.0 |
| 20260906085217 | 47 | 226 | 0.0 | 0.0 | 0.00 | 0.00 | 0.00 | 76 | 1025.0 |
| 20260906084704 | 47 | 226 | 0.0 | 0.0 | 0.00 | 0.00 | 0.00 | 76 | 1024.9 |
| 20260906084154 | 47 | 226 | 0.0 | 0.0 | 0.00 | 0.00 | 0.00 | 76 | 1024.7 |
| 20260906083642 | 48 | 226 | 0.0 | 0.0 | 0.00 | 0.00 | 0.00 | 76 | 1024.8 |
| 20260906083407 | 48 | 226 | 0.0 | 0.0 | 0.00 | 0.00 | 0.00 | 75 | 1024.8 |
| 20260906082633 | 48 | 226 | 0.0 | 0.0 | 0.00 | 0.00 | 0.00 | 75 | 1024.7 |
| 20260906082135 | 48 | 216 | 0.0 | 4.0 | 0.00 | 0.00 | 0.00 | 75 | 1024.7 |
| 20260906081623 | 48 | 210 | 1.0 | 7.0 | 0.00 | 0.00 | 0.00 | 74 | 1024.6 |
| 20260906081347 | 48 | 235 | 1.0 | 7.0 | 0.00 | 0.00 | 0.00 | 74 | 1024.7 |
| 20260906080837 | 48 | 241 | 0.0 | 6.0 | 0.00 | 0.00 | 0.00 | 74 | 1024.6 |
| 20260906080052 | 49 | 285 | 0.0 | 6.0 | 0.00 | 0.00 | 0.00 | 74 | 1024.5 |
| 20260906075541 | 49 | 264 | 0.0 | 5.0 | 0.00 | 0.00 | 0.00 | 74 | 1024.6 |
| 20260906075306 | 49 | 245 | 1.0 | 5.0 | 0.00 | 0.00 | 0.00 | 74 | 1024.5 |
| 20260906074754 | 49 | 251 | 2.0 | 6.0 | 0.00 | 0.00 | 0.00 | 74 | 1024.5 |
| 20260906074023 | 49 | 214 | 3.0 | 6.0 | 0.00 | 0.00 | 0.00 | 75 | 1024.3 |
| 20260906073522 | 49 | 245 | 2.0 | 6.0 | 0.00 | 0.00 | 0.00 | 76 | 1024.4 |
| 20260906073019 | 49 | 230 | 1.0 | 5.0 | 0.00 | 0.00 | 0.00 | 76 | 1024.3 |
| 20260906072751 | 49 | 244 | 1.0 | 5.0 | 0.00 | 0.00 | 0.00 | 76 | 1024.2 |
| 20260906072017 | 50 | 256 | 0.0 | 5.0 | 0.00 | 0.00 | 0.00 | 76 | 1024.2 |
| 20260906071749 | 50 | 264 | 0.0 | 1.0 | 0.00 | 0.00 | 0.00 | 76 | 1024.2 |
| 20260906071017 | 50 | 247 | 0.0 | 1.0 | 0.00 | 0.00 | 0.00 | 75 | 1024.2 |
| 20260906070515 | 50 | 254 | 0.0 | 1.0 | 0.00 | 0.00 | 0.00 | 75 | 1024.1 |
| 20260906070015 | 50 | 231 | 0.0 | 0.0 | 0.00 | 0.00 | 0.00 | 74 | 1024.2 |
| 20260906065856 | 51 | 231 | 0.0 | 0.0 | 0.00 | 0.00 | 0.00 | 74 | 1024.1 |
| 20260906065745 | 50 | 231 | 0.0 | 0.0 | 0.00 | 0.00 | 0.00 | 74 | 1024.1 |
| 20260906064509 | 51 | 229 | 0.0 | 5.0 | 0.00 | 0.00 | 0.00 | 73 | 1024.1 |
| 20260906064008 | 51 | 229 | 0.0 | 5.0 | 0.00 | 0.00 | 0.00 | 73 | 1023.9 |
| 20260906063509 | 51 | 231 | 0.0 | 3.0 | 0.00 | 0.00 | 0.00 | 73 | 1023.9 |
| 20260906063239 | 51 | 230 | 0.0 | 6.0 | 0.00 | 0.00 | 0.00 | 73 | 1023.9 |
| 20260906062507 | 51 | 230 | 2.0 | 6.0 | 0.00 | 0.00 | 0.00 | 73 | 1023.9 |
| 20260906062005 | 51 | 230 | 3.0 | 7.0 | 0.00 | 0.00 | 0.00 | 72 | 1024.0 |
| 20260906061505 | 51 | 253 | 2.0 | 7.0 | 0.00 | 0.00 | 0.00 | 72 | 1023.9 |
| 20260906061012 | 52 | 218 | 3.0 | 7.0 | 0.00 | 0.00 | 0.00 | 72 | 1023.9 |
| 20260906061005 | 52 | 225 | 3.0 | 7.0 | 0.00 | 0.00 | 0.00 | 72 | 1023.9 |
| 20260906060006 | 52 | 247 | 3.0 | 8.0 | 0.00 | 0.00 | 0.00 | 73 | 1023.9 |
| 20260906055456 | 52 | 265 | 3.0 | 9.0 | 0.00 | 0.00 | 0.00 | 73 | 1023.9 |
| 20260906054952 | 52 | 215 | 1.0 | 9.0 | 0.00 | 0.00 | 0.00 | 74 | 1023.8 |
| 20260906054444 | 52 | 229 | 1.0 | 7.0 | 0.00 | 0.00 | 0.00 | 75 | 1023.8 |
| 20260906053945 | 52 | 246 | 2.0 | 7.0 | 0.00 | 0.00 | 0.00 | 75 | 1023.8 |
| 20260906053428 | 52 | 226 | 2.0 | 7.0 | 0.00 | 0.00 | 0.00 | 76 | 1023.8 |
| 20260906053200 | 52 | 209 | 3.0 | 7.0 | 0.00 | 0.00 | 0.00 | 78 | 1023.6 |
| 20260906052429 | 52 | 237 | 2.0 | 7.0 | 0.00 | 0.00 | 0.00 | 80 | 1023.5 |
| 20260906052157 | 53 | 222 | 2.0 | 7.0 | 0.00 | 0.00 | 0.00 | 82 | 1023.5 |
| 20260906051428 | 53 | 202 | 1.0 | 7.0 | 0.00 | 0.00 | 0.00 | 83 | 1023.4 |
| 20260906051158 | 53 | 243 | 0.0 | 0.0 | 0.00 | 0.00 | 0.00 | 84 | 1023.1 |
| 20260906050427 | 53 | 229 | 0.0 | 0.0 | 0.00 | 0.00 | 0.00 | 84 | 1022.9 |
| 20260906045923 | 53 | 229 | 0.0 | 0.0 | 0.00 | 0.00 | 0.00 | 84 | 1023.0 |
| 20260906045421 | 53 | 124 | 0.0 | 0.0 | 0.00 | 0.00 | 0.00 | 84 | 1022.9 |
| 20260906044918 | 53 | 124 | 0.0 | 0.0 | 0.00 | 0.00 | 0.00 | 83 | 1022.9 |
| 20260906044415 | 53 | 124 | 0.0 | 0.0 | 0.00 | 0.00 | 0.00 | 82 | 1022.8 |
| 20260906043914 | 54 | 124 | 0.0 | 0.0 | 0.00 | 0.00 | 0.00 | 82 | 1022.7 |
| 20260906043640 | 54 | 124 | 0.0 | 0.0 | 0.00 | 0.00 | 0.00 | 81 | 1022.6 |
| 20260906042910 | 54 | 124 | 0.0 | 0.0 | 0.00 | 0.00 | 0.00 | 81 | 1022.5 |
| 20260906042407 | 54 | 123 | 0.0 | 0.0 | 0.00 | 0.00 | 0.00 | 80 | 1022.4 |
| 20260906041906 | 54 | 123 | 0.0 | 0.0 | 0.00 | 0.00 | 0.00 | 79 | 1022.3 |
| 20260906041351 | 54 | 123 | 0.0 | 0.0 | 0.00 | 0.00 | 0.00 | 78 | 1022.3 |
| 20260906040850 | 54 | 123 | 0.0 | 0.0 | 0.00 | 0.00 | 0.00 | 78 | 1022.2 |
| 20260906040346 | 54 | 123 | 0.0 | 0.0 | 0.00 | 0.00 | 0.00 | 79 | 1022.3 |
| 20260906035844 | 54 | 123 | 0.0 | 0.0 | 0.00 | 0.00 | 0.00 | 79 | 1022.3 |
| 20260906035345 | 54 | 123 | 0.0 | 0.0 | 0.00 | 0.00 | 0.00 | 80 | 1022.2 |
| 20260906034845 | 54 | 122 | 0.0 | 0.0 | 0.00 | 0.00 | 0.00 | 81 | 1022.2 |
| 20260906034345 | 54 | 122 | 0.0 | 0.0 | 0.00 | 0.00 | 0.00 | 81 | 1022.2 |
| 20260906034115 | 54 | 122 | 0.0 | 0.0 | 0.00 | 0.00 | 0.00 | 80 | 1022.2 |
| 20260906033344 | 54 | 122 | 0.0 | 0.0 | 0.00 | 0.00 | 0.00 | 80 | 1022.2 |
| 20260906033114 | 54 | 122 | 0.0 | 0.0 | 0.00 | 0.00 | 0.00 | 80 | 1022.1 |
| 20260906032343 | 54 | 122 | 0.0 | 0.0 | 0.00 | 0.00 | 0.00 | 80 | 1022.1 |
| 20260906031839 | 54 | 122 | 0.0 | 0.0 | 0.00 | 0.00 | 0.00 | 80 | 1022.1 |
| 20260906031339 | 55 | 122 | 0.0 | 0.0 | 0.00 | 0.00 | 0.00 | 80 | 1022.2 |
| 20260906030850 | 55 | 122 | 0.0 | 0.0 | 0.00 | 0.00 | 0.00 | 80 | 1022.1 |
| 20260906030620 | 55 | 122 | 0.0 | 0.0 | 0.00 | 0.00 | 0.00 | 79 | 1021.9 |
| 20260906030110 | 55 | 122 | 0.0 | 0.0 | 0.00 | 0.00 | 0.00 | 79 | 1021.9 |
| 20260906025338 | 55 | 122 | 1.0 | 5.0 | 0.00 | 0.00 | 0.00 | 78 | 1021.9 |
| 20260906024835 | 55 | 122 | 1.0 | 5.0 | 0.00 | 0.00 | 0.00 | 78 | 1021.8 |
| 20260906024335 | 55 | 124 | 0.0 | 5.0 | 0.00 | 0.00 | 0.00 | 78 | 1021.8 |
| 20260906023836 | 55 | 120 | 0.0 | 1.0 | 0.00 | 0.00 | 0.00 | 78 | 1021.6 |
| 20260906023334 | 55 | 107 | 0.0 | 1.0 | 0.00 | 0.00 | 0.00 | 79 | 1021.7 |
| 20260906022832 | 55 | 106 | 0.0 | 1.0 | 0.00 | 0.00 | 0.00 | 79 | 1021.7 |
| 20260906022604 | 55 | 122 | 0.0 | 1.0 | 0.00 | 0.00 | 0.00 | 79 | 1021.6 |
| 20260906021829 | 55 | 120 | 0.0 | 1.0 | 0.00 | 0.00 | 0.00 | 80 | 1021.5 |
| 20260906021331 | 55 | 112 | 0.0 | 0.0 | 0.00 | 0.00 | 0.00 | 80 | 1021.5 |
| 20260906020829 | 55 | 112 | 0.0 | 0.0 | 0.00 | 0.00 | 0.00 | 80 | 1021.5 |
| 20260906020600 | 55 | 112 | 0.0 | 0.0 | 0.00 | 0.00 | 0.00 | 81 | 1021.4 |
| 20260906015831 | 55 | 112 | 0.0 | 0.0 | 0.00 | 0.00 | 0.00 | 81 | 1021.3 |
| 20260906015600 | 55 | 112 | 0.0 | 0.0 | 0.00 | 0.00 | 0.00 | 80 | 1021.3 |
| 20260906014830 | 55 | 112 | 0.0 | 0.0 | 0.00 | 0.00 | 0.00 | 80 | 1021.2 |
| 20260906014329 | 56 | 112 | 0.0 | 0.0 | 0.00 | 0.00 | 0.00 | 80 | 1021.2 |
| 20260906013828 | 56 | 89 | 0.0 | 1.0 | 0.00 | 0.00 | 0.00 | 80 | 1021.1 |
| 20260906013328 | 56 | 89 | 0.0 | 1.0 | 0.00 | 0.00 | 0.00 | 79 | 1021.1 |
| 20260906012829 | 56 | 91 | 1.0 | 7.0 | 0.00 | 0.00 | 0.00 | 79 | 1021.0 |
| 20260906012326 | 56 | 87 | 1.0 | 7.0 | 0.00 | 0.00 | 0.00 | 78 | 1021.0 |
| 20260906011825 | 57 | 97 | 1.0 | 8.0 | 0.00 | 0.00 | 0.00 | 78 | 1021.0 |
| 20260906011325 | 57 | 93 | 2.0 | 8.0 | 0.00 | 0.00 | 0.00 | 77 | 1020.8 |
| 20260906010825 | 57 | 95 | 1.0 | 7.0 | 0.00 | 0.00 | 0.00 | 76 | 1020.9 |
| 20260906010556 | 57 | 120 | 0.0 | 7.0 | 0.00 | 0.00 | 0.00 | 76 | 1020.9 |
| 20260906005823 | 58 | 148 | 0.0 | 6.0 | 0.00 | 0.00 | 0.00 | 75 | 1020.7 |
| 20260906005324 | 58 | 117 | 1.0 | 9.0 | 0.00 | 0.00 | 0.00 | 75 | 1020.6 |
| 20260906004822 | 58 | 145 | 1.0 | 9.0 | 0.00 | 0.00 | 0.00 | 75 | 1020.6 |
| 20260906004320 | 58 | 161 | 1.0 | 8.0 | 0.00 | 0.00 | 0.00 | 75 | 1020.6 |
| 20260906003821 | 58 | 137 | 1.0 | 8.0 | 0.00 | 0.00 | 0.00 | 75 | 1020.4 |
| 20260906003321 | 58 | 91 | 0.0 | 2.0 | 0.00 | 0.00 | 0.00 | 75 | 1020.5 |
| 20260906002820 | 58 | 147 | 0.0 | 0.0 | 0.00 | 0.00 | 0.00 | 76 | 1020.4 |
| 20260906002319 | 58 | 164 | 0.0 | 0.0 | 0.00 | 0.00 | 0.00 | 77 | 1020.3 |
| 20260906001816 | 58 | 214 | 0.0 | 2.0 | 0.00 | 0.00 | 0.00 | 77 | 1020.0 |
| 20260906001314 | 58 | 222 | 0.0 | 2.0 | 0.00 | 0.00 | 0.00 | 77 | 1019.8 |
| 20260906001039 | 57 | 206 | 0.0 | 3.0 | 0.00 | 0.00 | 0.00 | 78 | 1020.0 |
| 20260906000308 | 57 | 175 | 0.0 | 3.0 | 0.00 | 0.00 | 0.00 | 79 | 1019.9 |
| 20260905235808 | 57 | 90 | 0.0 | 1.0 | 0.00 | 0.00 | 0.00 | 79 | 1019.4 |
| 20260905235307 | 57 | 99 | 0.0 | 1.0 | 0.00 | 0.00 | 0.00 | 79 | 1019.4 |
| 20260905234806 | 58 | 90 | 0.0 | 1.0 | 0.00 | 0.00 | 0.00 | 78 | 1019.3 |
| 20260905234300 | 58 | 89 | 0.0 | 1.0 | 0.00 | 0.00 | 0.00 | 78 | 1019.2 |
| 20260905233756 | 58 | 99 | 0.0 | 2.0 | 0.00 | 0.00 | 0.00 | 78 | 1019.1 |
| 20260905233254 | 58 | 89 | 0.0 | 2.0 | 0.00 | 0.00 | 0.00 | 78 | 1019.0 |
| 20260905232753 | 58 | 121 | 0.0 | 1.0 | 0.00 | 0.00 | 0.00 | 77 | 1018.9 |
| 20260905232247 | 58 | 92 | 0.0 | 1.0 | 0.00 | 0.00 | 0.00 | 77 | 1018.9 |
| 20260905231736 | 58 | 80 | 0.0 | 1.0 | 0.00 | 0.00 | 0.00 | 76 | 1018.8 |
| 20260905231232 | 58 | 99 | 0.0 | 1.0 | 0.00 | 0.00 | 0.00 | 76 | 1018.8 |
| 20260905230956 | 58 | 92 | 0.0 | 1.0 | 0.00 | 0.00 | 0.00 | 76 | 1018.7 |
| 20260905230214 | 58 | 93 | 0.0 | 1.0 | 0.00 | 0.00 | 0.00 | 75 | 1018.5 |
| 20260905225705 | 59 | 91 | 0.0 | 1.0 | 0.00 | 0.00 | 0.00 | 75 | 1018.5 |
| 20260905225153 | 59 | 118 | 0.0 | 1.0 | 0.00 | 0.00 | 0.00 | 74 | 1018.5 |
| 20260905224644 | 59 | 77 | 0.0 | 1.0 | 0.00 | 0.00 | 0.00 | 74 | 1018.5 |
| 20260905224132 | 59 | 96 | 0.0 | 1.0 | 0.00 | 0.00 | 0.00 | 73 | 1018.4 |
| 20260905223624 | 59 | 93 | 0.0 | 1.0 | 0.00 | 0.00 | 0.00 | 73 | 1018.4 |
| 20260905223118 | 60 | 96 | 0.0 | 1.0 | 0.00 | 0.00 | 0.00 | 73 | 1018.4 |
| 20260905222616 | 60 | 99 | 0.0 | 1.0 | 0.00 | 0.00 | 0.00 | 72 | 1018.3 |
| 20260905222110 | 60 | 125 | 0.0 | 1.0 | 0.00 | 0.00 | 0.00 | 71 | 1018.1 |
| 20260905221603 | 60 | 101 | 0.0 | 1.0 | 0.00 | 0.00 | 0.00 | 71 | 1018.2 |
| 20260905221055 | 60 | 100 | 0.0 | 1.0 | 0.00 | 0.00 | 0.00 | 71 | 1018.1 |
| 20260905220031 | 61 | 100 | 0.0 | 1.0 | 0.00 | 0.00 | 0.00 | 70 | 1018.0 |
| 20260905215514 | 61 | 99 | 0.0 | 1.0 | 0.00 | 0.00 | 0.00 | 68 | 1018.1 |
| 20260905215005 | 62 | 171 | 0.0 | 0.0 | 0.00 | 0.00 | 0.00 | 67 | 1018.0 |
| 20260905214954 | 62 | 196 | 0.0 | 0.0 | 0.00 | 0.00 | 0.00 | 67 | 1018.0 |
| 20260905213941 | 63 | 196 | 0.0 | 0.0 | 0.00 | 0.00 | 0.00 | 65 | 1017.9 |
| 20260905213426 | 63 | 248 | 0.0 | 0.0 | 0.00 | 0.00 | 0.00 | 64 | 1017.8 |
| 20260905213145 | 63 | 248 | 0.0 | 0.0 | 0.00 | 0.00 | 0.00 | 63 | 1017.8 |
| 20260905212403 | 63 | 248 | 0.0 | 0.0 | 0.00 | 0.00 | 0.00 | 62 | 1017.6 |
| 20260905211853 | 64 | 248 | 0.0 | 0.0 | 0.00 | 0.00 | 0.00 | 61 | 1017.5 |
| 20260905211344 | 64 | 248 | 0.0 | 0.0 | 0.00 | 0.00 | 0.00 | 61 | 1017.5 |
| 20260905210834 | 64 | 248 | 0.0 | 1.0 | 0.00 | 0.00 | 0.00 | 59 | 1017.4 |
| 20260905210325 | 64 | 248 | 0.0 | 1.0 | 0.00 | 0.00 | 0.00 | 59 | 1017.4 |
| 20260905205804 | 64 | 248 | 0.0 | 1.0 | 0.00 | 0.00 | 0.00 | 57 | 1017.3 |
| 20260905205252 | 64 | 248 | 0.0 | 1.0 | 0.00 | 0.00 | 0.00 | 57 | 1017.4 |
| 20260905204744 | 64 | 254 | 0.0 | 1.0 | 0.00 | 0.00 | 0.00 | 57 | 1017.3 |
| 20260905204226 | 64 | 247 | 0.0 | 1.0 | 0.00 | 0.00 | 0.00 | 56 | 1017.3 |
| 20260905203715 | 65 | 246 | 0.0 | 1.0 | 0.00 | 0.00 | 0.00 | 55 | 1017.4 |